Regional Weather Roundup
Issued by NWS Kansas City/Pleasant Hill, MO

Home | Current Version | Previous Version | Text Only | Print | Product List | Glossary On
Versions: 1 2 3 4 5 6 7 8 9 10 11 12 13 14 15 16 17 18 19 20 21 22 23 24 25 26 27 28 29 30 31 32 33 34 35 36 37 38 39 40 41 42 43 44 45 46 47 48 49 50
000
ASUS43 KEAX 241610
RWREAX

WEATHER ROUNDUP FOR EASTERN KANSAS AND NORTHWEST MISSOURI
NATIONAL WEATHER SERVICE KANSAS CITY/PLEASANT HILL MO
1100 AM CDT FRI MAR 24 2017

KSZ040-057-103>105-MOZ028-029-037-043-241700-
...KANSAS CITY METROPOLITAN AREA...

CITY           SKY/WX    TMP DP  RH WIND       PRES   REMARKS
K.C. INTL      TSTM      63  50  62 SW12      29.86R
K.C. DOWNTOWN  LGT RAIN  65  51  60 S15       29.85R
LEES SUMMIT    CLOUDY    68  44  42 SW21G30   29.85R
OLATHE - IXD   PTSUNNY   65  55  70 SE13      29.85R
OLATHE - OJC   CLOUDY    63  53  70 S12G21    29.85R
LAWRENCE       LGT RAIN  66  51  58 SE10      29.84R

$$

MOZ001>008-011>017-020>025-030>033-038>040-044>046-053-054-241700-
...NORTHERN AND CENTRAL MISSOURI...

CITY           SKY/WX    TMP DP  RH WIND       PRES   REMARKS
ST. JOSEPH     TSTM      58  55  90 S6        29.87R FOG
MOSBY          PTSUNNY   68  41  37 SW8G17    29.86R
WARRENSBURG    PTSUNNY   70  43  37 S24G33    29.87R
WHITEMAN AFB   PTSUNNY   69  44  39 SW25G32   29.87R
CLINTON        CLOUDY    72  46  40 S21G32    29.89R
SEDALIA        CLOUDY    71  45  39 S26G36    29.90R
WARSAW         NOT AVBL
CHILLICOTHE      N/A     69  44  40 S12       29.87R
KIRKSVILLE     CLOUDY    70  32  24 SW17G25   29.90R

$$

MOZ041-047>049-056>058-063>065-088>090-097-241700-
...EASTERN AND SOUTHERN MISSOURI...

CITY           SKY/WX    TMP DP  RH WIND       PRES   REMARKS
ST. LOUIS INTL PTSUNNY   75  55  49 S17       29.99F
SPIRIT OF STL  MOSUNNY   76  54  46 S13       29.98S
COLUMBIA       PTSUNNY   73  47  39 S23G37    29.93R
JEFFERSON CITY CLOUDY    76  47  35 S20G31    29.92S
ROLLA          SUNNY     74  52  46 S28G41    29.95R
OSAGE BEACH    PTSUNNY  N/A N/A N/A S14G28    29.95R
SPRINGFIELD    PTSUNNY   69  49  48 S25G35    29.94R
BRANSON        PTSUNNY   68  50  52 S21G32    30.00R
JOPLIN         CLOUDY    67  52  58 S24G33    29.90R
WEST PLAINS    MOSUNNY   68  55  63 S15G26    30.05S

$$

IAZ060-094-KSZ022-034>040-054-083-096-NEZ052-066-093-241700-
...KANSAS...SOUTHEAST NEBRASKA AND IOWA...

CITY           SKY/WX    TMP DP  RH WIND       PRES   REMARKS
TOPEKA         CLOUDY    67  54  63 S9        29.81S
MANHATTAN      PTSUNNY   71  50  47 S14G23    29.77R
EMPORIA        PTSUNNY   71  53  52 S31G40    29.77R
CHANUTE        CLOUDY    68  52  56 S29G37    29.84R
WICHITA        MOSUNNY   67  52  58 S23G30    29.77R
OMAHA          CLOUDY    49  44  83 N16       29.89R
LINCOLN        CLOUDY    48  45  89 N21G26    29.90R
FALLS CITY     LGT RAIN  58  57  97 SE3       29.85R
LAMONI         CLOUDY    64  47  53 SW12      29.86R
DES MOINES     LGT RAIN  63  50  62 W13       29.86R

$$




USA.gov is the U.S. government's official web portal to all federal, state and local government web resources and services.